Regional Weather Roundup
Issued by NWS

Home | Current Version | Previous Version | Graphics & Text | Print | Product List | Glossary On
Versions: 1 2 3 4 5 6 7 8 9 10 11 12 13 14 15 16 17 18 19 20 21 22 23 24 25 26 27 28 29 30 31 32 33 34 35 36 37 38 39 40 41 42 43 44 45 46 47 48 49 50
000
ASUS45 KSLC 281810
RWRUT

UTAH REGIONAL WEATHER ROUNDUP
NATIONAL WEATHER SERVICE SALT LAKE CITY UT
1100 AM MST SUN DEC 28 2014

UTZ001>011-023>025-281900-

NORTHERN UTAH

CITY           SKY/WX    TMP DP  RH WIND       PRES   REMARKS
BRIGHAM CITY   CLOUDY    29  22  75 CALM      30.10S
HILL AFB       LGT SNOW  27  21  80 S6        30.08R WCI  20
LOGAN          FLURRIES  28  23  81 S9        30.04F WCI  19
OGDEN          LGT SNOW  29  20  69 VRB3      30.09R
PROVO AIRPORT  PTSUNNY   28  16  59 CALM      30.12S
SALT LAKE CITY CLOUDY    31  18  58 S9        30.06S WCI  23
VERNAL         MOSUNNY   20  11  68 CALM      30.07F
WENDOVER       CLOUDY    28  16  59 NE7       30.07R WCI  21
HEBER CITY     LGT SNOW  21  18  86 CALM      30.06S
WEST JORDAN    CLOUDY    28  19  69 S18       30.06F WCI  16

$$

UTZ012>022-026-027-281900-

SOUTHERN/CENTRAL UTAH

CITY           SKY/WX    TMP DP  RH WIND       PRES   REMARKS
BLANDING       PTSUNNY   23  13  65 SE5       30.25F WCI  16
BRYCE CANYON   MOSUNNY   29   6  38 SW6       30.09F WCI  23
CEDAR CITY     PTSUNNY   28  13  53 SW6       30.13F WCI  22
DELTA          MOSUNNY   26  15  63 CALM      30.13S
MILFORD        SUNNY     25  14  63 S18       30.13F WCI  11
MOAB/CYNLANDS  SUNNY     23  16  74 NW5       30.16S WCI  17
PRICE          PTSUNNY   24   7  48 SE3       30.11F
ST GEORGE      MOCLDY    28   9  43 CALM      30.30F
KANAB          MOSUNNY   30  14  51 S7        30.24F WCI  23

$$

REGIONAL REPORTS     COLORADO/ARIZONA

CITY           SKY/WX    TMP DP  RH WIND       PRES   REMARKS
CRAIG, CO      CLOUDY    21  12  68 E5        30.02F WCI  15
GRAND JUNCTION CLOUDY    24  11  57 CALM      30.15F
RIFLE          CLOUDY    17  11  77 CALM      30.14F
MONTROSE       CLOUDY    24  11  57 SE7       30.14F WCI  16
CORTEZ         CLOUDY    24  10  55 CALM      30.19F
PAGE, AZ       MOSUNNY   32  14  47 CALM      30.20F
GRAND CANYON   PTSUNNY   30  10  43 SW8       30.18F WCI  22
KINGMAN        PTSUNNY   39  13  34 CALM      30.25R
FLAGSTAFF      MOSUNNY   34   5  29 SW10      30.16S WCI  26

$$

REGIONAL REPORTS    NEVADA/IDAHO/WYOMING

CITY           SKY/WX    TMP DP  RH WIND       PRES   REMARKS
LAS VEGAS, NV  CLOUDY    41  13  31 VRB3      30.26S
ELY            MOSUNNY   28  13  53 SE5       30.14S WCI  23
ELKO           MOSUNNY   35  22  58 SW14      30.09S WCI  26
POCATELLO, ID  PTSUNNY   26  23  88 SW22      30.04R WCI  12
BURLEY         MOSUNNY   31  26  82 W17G25    30.03R WCI  19
EVANSTON, WY   LGT SNOW  22  18  85 SW23      29.93F FOG     WCI   6
ROCK SPRINGS   LGT SNOW  18  15  88 S6        29.92F FOG     WCI  10

$$


USA.gov is the U.S. government's official web portal to all federal, state and local government web resources and services.